Location: Albuquerque Trailhead
(34.7934°N, 106.3736°W)
Time: 00:39:11
(UTC+00:00)

Cosmos 1340 - Pass Details

Date: 20 June 2021
Orbit: 498 x 504 km, 81.2° (Epoch: 01 August)

Event Time Altitude Azimuth Distance (km) Brightness Sun altitude
Exits shadow 03:45:56 19° 89° (E) 1,268 4.2 -14.7°
Drops below altitude 10° 03:48:32 10° 45° (NE) 1,717 5.3 -15.1°
Sets 03:51:08 0° 27° (NNE) 2,607 6.5 -15.5°
